Time,TemperatureF,DewpointF,PressureIn,WindDirection,WindDirectionDegrees,WindSpeedMPH,WindSpeedGustMPH,Humidity,HourlyPrecipIn,Conditions,Clouds,dailyrainin,SoftwareType,DateUTC
2013-04-10 00:00:00,67.2,35.5,30.18,South,179,0.0,0.0,31,0.00,,,0.00,Wunderground v.1.15,2013-04-10 04:00:00,
2013-04-10 00:02:00,67.2,35.5,30.18,South,176,0.0,1.0,31,0.00,,,0.00,Wunderground v.1.15,2013-04-10 04:02:00,
2013-04-10 00:03:00,67.2,36.3,30.18,South,178,0.0,1.0,32,0.00,,,0.00,Wunderground v.1.15,2013-04-10 04:03:00,
2013-04-10 00:04:00,67.1,36.2,30.17,South,179,7.0,7.0,32,0.00,,,0.00,Wunderground v.1.15,2013-04-10 04:04:00,
2013-04-10 00:10:00,67.1,36.2,30.17,South,175,0.0,1.0,32,0.00,,,0.00,Wunderground v.1.15,2013-04-10 04:10:00,
2013-04-10 00:15:00,67.0,36.1,30.17,SSW,195,0.0,5.0,32,0.00,,,0.00,Wunderground v.1.15,2013-04-10 04:15:00,
2013-04-10 00:20:00,67.0,36.1,30.17,SSW,207,0.0,1.0,32,0.00,,,0.00,Wunderground v.1.15,2013-04-10 04:20:00,
2013-04-10 00:26:00,67.0,36.1,30.17,SSW,196,0.0,7.0,32,0.00,,,0.00,Wunderground v.1.15,2013-04-10 04:26:00,
2013-04-10 00:31:00,66.9,36.1,30.16,SSW,194,3.0,3.0,32,0.00,,,0.00,Wunderground v.1.15,2013-04-10 04:31:00,
2013-04-10 00:37:00,66.9,36.1,30.17,SSW,202,7.0,7.0,32,0.00,,,0.00,Wunderground v.1.15,2013-04-10 04:37:00,
2013-04-10 00:42:00,66.8,36.0,30.17,SSW,201,0.0,5.0,32,0.00,,,0.00,Wunderground v.1.15,2013-04-10 04:42:00,
2013-04-10 00:48:00,66.8,36.0,30.17,South,189,6.0,6.0,32,0.00,,,0.00,Wunderground v.1.15,2013-04-10 04:48:00,
2013-04-10 00:53:00,66.7,35.9,30.17,South,176,6.0,8.0,32,0.00,,,0.00,Wunderground v.1.15,2013-04-10 04:53:00,
2013-04-10 00:59:00,66.6,35.8,30.16,South,181,6.0,8.0,32,0.00,,,0.00,Wunderground v.1.15,2013-04-10 04:59:00,
2013-04-10 01:05:00,66.5,35.7,30.16,SSW,197,1.0,5.0,32,0.00,,,0.00,Wunderground v.1.15,2013-04-10 05:05:00,
2013-04-10 01:10:00,66.5,35.7,30.16,South,182,6.0,6.0,32,0.00,,,0.00,Wunderground v.1.15,2013-04-10 05:10:00,
2013-04-10 01:15:00,66.4,35.6,30.16,SSW,202,7.0,7.0,32,0.00,,,0.00,Wunderground v.1.15,2013-04-10 05:15:00,
2013-04-10 01:20:00,66.4,35.6,30.16,SSW,205,5.0,5.0,32,0.00,,,0.00,Wunderground v.1.15,2013-04-10 05:20:00,
2013-04-10 01:26:00,66.3,35.5,30.16,SSW,213,5.0,6.0,32,0.00,,,0.00,Wunderground v.1.15,2013-04-10 05:26:00,
2013-04-10 01:31:00,66.2,35.4,30.16,South,183,5.0,5.0,32,0.00,,,0.00,Wunderground v.1.15,2013-04-10 05:31:00,
2013-04-10 01:37:00,66.1,35.4,30.15,SSW,197,5.0,5.0,32,0.00,,,0.00,Wunderground v.1.15,2013-04-10 05:37:00,
2013-04-10 01:43:00,66.0,35.3,30.15,SSW,196,3.0,5.0,32,0.00,,,0.00,Wunderground v.1.15,2013-04-10 05:43:00,
2013-04-10 01:49:00,65.9,35.2,30.15,SSW,198,3.0,5.0,32,0.00,,,0.00,Wunderground v.1.15,2013-04-10 05:49:00,
2013-04-10 01:54:00,65.8,35.1,30.15,South,183,0.0,2.0,32,0.00,,,0.00,Wunderground v.1.15,2013-04-10 05:54:00,
2013-04-10 01:59:00,65.8,35.1,30.15,SSW,196,7.0,7.0,32,0.00,,,0.00,Wunderground v.1.15,2013-04-10 05:59:00,
2013-04-10 02:04:00,65.8,35.1,30.15,SSW,200,0.0,7.0,32,0.00,,,0.00,Wunderground v.1.15,2013-04-10 06:04:00,
2013-04-10 02:09:00,65.8,35.1,30.14,SSW,204,4.0,7.0,32,0.00,,,0.00,Wunderground v.1.15,2013-04-10 06:09:00,
2013-04-10 02:14:00,65.8,35.1,30.14,South,184,1.0,7.0,32,0.00,,,0.00,Wunderground v.1.15,2013-04-10 06:14:00,
2013-04-10 02:19:00,65.8,35.1,30.14,SSW,199,0.0,7.0,32,0.00,,,0.00,Wunderground v.1.15,2013-04-10 06:19:00,
2013-04-10 02:24:00,65.7,35.0,30.13,SSW,199,0.0,6.0,32,0.00,,,0.00,Wunderground v.1.15,2013-04-10 06:24:00,
2013-04-10 02:29:00,65.7,35.0,30.13,SSW,210,0.0,6.0,32,0.00,,,0.00,Wunderground v.1.15,2013-04-10 06:29:00,
2013-04-10 02:34:00,65.7,35.0,30.13,SSE,156,6.0,7.0,32,0.00,,,0.00,Wunderground v.1.15,2013-04-10 06:34:00,
2013-04-10 02:39:00,65.7,35.0,30.12,SSW,198,1.0,7.0,32,0.00,,,0.00,Wunderground v.1.15,2013-04-10 06:39:00,
2013-04-10 02:44:00,65.6,34.9,30.12,South,191,0.0,5.0,32,0.00,,,0.00,Wunderground v.1.15,2013-04-10 06:44:00,
2013-04-10 02:49:00,65.6,34.9,30.12,SSW,197,0.0,5.0,32,0.00,,,0.00,Wunderground v.1.15,2013-04-10 06:49:00,
2013-04-10 02:54:00,65.5,34.8,30.12,SSW,196,2.0,4.0,32,0.00,,,0.00,Wunderground v.1.15,2013-04-10 06:54:00,
2013-04-10 02:59:00,65.5,34.8,30.12,SSW,195,0.0,5.0,32,0.00,,,0.00,Wunderground v.1.15,2013-04-10 06:59:00,
2013-04-10 03:04:00,65.5,34.8,30.12,SSW,194,0.0,1.0,32,0.00,,,0.00,Wunderground v.1.15,2013-04-10 07:04:00,
2013-04-10 03:09:00,65.4,34.8,30.12,SSW,196,4.0,6.0,32,0.00,,,0.00,Wunderground v.1.15,2013-04-10 07:09:00,
2013-04-10 03:14:00,65.3,34.7,30.12,SSW,198,0.0,7.0,32,0.00,,,0.00,Wunderground v.1.15,2013-04-10 07:14:00,
2013-04-10 03:19:00,65.3,34.7,30.12,SSW,205,6.0,7.0,32,0.00,,,0.00,Wunderground v.1.15,2013-04-10 07:19:00,
2013-04-10 03:24:00,65.3,34.7,30.12,SSW,194,5.0,5.0,32,0.00,,,0.00,Wunderground v.1.15,2013-04-10 07:24:00,
2013-04-10 03:29:00,65.2,34.6,30.12,South,183,0.0,7.0,32,0.00,,,0.00,Wunderground v.1.15,2013-04-10 07:29:00,
2013-04-10 03:34:00,65.1,34.5,30.12,South,183,0.0,1.0,32,0.00,,,0.00,Wunderground v.1.15,2013-04-10 07:34:00,
2013-04-10 03:39:00,65.0,34.4,30.12,SSW,207,0.0,3.0,32,0.00,,,0.00,Wunderground v.1.15,2013-04-10 07:39:00,
2013-04-10 03:44:00,65.0,34.4,30.12,SSW,206,0.0,5.0,32,0.00,,,0.00,Wunderground v.1.15,2013-04-10 07:44:00,
2013-04-10 03:49:00,65.0,34.4,30.12,SSW,204,0.0,5.0,32,0.00,,,0.00,Wunderground v.1.15,2013-04-10 07:49:00,
2013-04-10 03:54:00,64.9,34.3,30.12,SSW,200,0.0,5.0,32,0.00,,,0.00,Wunderground v.1.15,2013-04-10 07:54:00,
2013-04-10 03:59:00,64.9,34.3,30.12,SSW,200,0.0,5.0,32,0.00,,,0.00,Wunderground v.1.15,2013-04-10 07:59:00,
2013-04-10 04:04:00,64.8,34.2,30.12,SSW,200,2.0,2.0,32,0.00,,,0.00,Wunderground v.1.15,2013-04-10 08:04:00,
2013-04-10 04:09:00,64.8,34.2,30.12,SSW,199,0.0,2.0,32,0.00,,,0.00,Wunderground v.1.15,2013-04-10 08:09:00,
2013-04-10 04:14:00,64.7,34.1,30.12,South,190,0.0,3.0,32,0.00,,,0.00,Wunderground v.1.15,2013-04-10 08:14:00,
2013-04-10 04:19:00,64.6,34.1,30.12,South,190,0.0,3.0,32,0.00,,,0.00,Wunderground v.1.15,2013-04-10 08:19:00,
2013-04-10 04:24:00,64.6,34.1,30.12,South,188,0.0,0.0,32,0.00,,,0.00,Wunderground v.1.15,2013-04-10 08:24:00,
2013-04-10 04:29:00,64.5,34.0,30.12,South,188,0.0,1.0,32,0.00,,,0.00,Wunderground v.1.15,2013-04-10 08:29:00,
2013-04-10 04:34:00,64.5,34.0,30.12,South,189,0.0,1.0,32,0.00,,,0.00,Wunderground v.1.15,2013-04-10 08:34:00,
2013-04-10 04:39:00,64.5,34.0,30.12,SSW,194,4.0,6.0,32,0.00,,,0.00,Wunderground v.1.15,2013-04-10 08:39:00,
2013-04-10 04:44:00,64.6,34.1,30.13,SSW,207,0.0,6.0,32,0.00,,,0.00,Wunderground v.1.15,2013-04-10 08:44:00,
2013-04-10 04:49:00,64.5,34.0,30.13,SSW,207,0.0,6.0,32,0.00,,,0.00,Wunderground v.1.15,2013-04-10 08:49:00,
2013-04-10 04:54:00,64.5,34.0,30.13,SSW,207,0.0,5.0,32,0.00,,,0.00,Wunderground v.1.15,2013-04-10 08:54:00,
2013-04-10 04:59:00,64.3,33.8,30.13,SSW,209,0.0,5.0,32,0.00,,,0.00,Wunderground v.1.15,2013-04-10 08:59:00,
2013-04-10 05:04:00,64.1,34.4,30.13,SSW,209,0.0,0.0,33,0.00,,,0.00,Wunderground v.1.15,2013-04-10 09:04:00,
2013-04-10 05:09:00,64.1,34.4,30.13,SSW,209,0.0,0.0,33,0.00,,,0.00,Wunderground v.1.15,2013-04-10 09:09:00,
2013-04-10 05:14:00,64.1,34.4,30.13,SSW,210,0.0,0.0,33,0.00,,,0.00,Wunderground v.1.15,2013-04-10 09:14:00,
2013-04-10 05:19:00,64.1,34.4,30.13,SSW,210,0.0,0.0,33,0.00,,,0.00,Wunderground v.1.15,2013-04-10 09:19:00,
2013-04-10 05:24:00,64.1,34.4,30.13,SSW,209,1.0,6.0,33,0.00,,,0.00,Wunderground v.1.15,2013-04-10 09:24:00,
2013-04-10 05:29:00,64.1,34.4,30.13,SSW,209,0.0,6.0,33,0.00,,,0.00,Wunderground v.1.15,2013-04-10 09:29:00,
2013-04-10 05:34:00,64.1,34.4,30.13,SSW,206,0.0,6.0,33,0.00,,,0.00,Wunderground v.1.15,2013-04-10 09:34:00,
2013-04-10 05:39:00,64.0,34.3,30.13,SSW,205,0.0,6.0,33,0.00,,,0.00,Wunderground v.1.15,2013-04-10 09:39:00,
2013-04-10 05:44:00,64.0,34.3,30.13,SSW,205,0.0,0.0,33,0.00,,,0.00,Wunderground v.1.15,2013-04-10 09:44:00,
2013-04-10 05:49:00,63.9,34.2,30.13,SSW,205,0.0,0.0,33,0.00,,,0.00,Wunderground v.1.15,2013-04-10 09:49:00,
2013-04-10 05:54:00,63.9,34.2,30.13,SSW,205,0.0,0.0,33,0.00,,,0.00,Wunderground v.1.15,2013-04-10 09:54:00,
2013-04-10 05:59:00,63.8,34.1,30.14,SSW,205,0.0,0.0,33,0.00,,,0.00,Wunderground v.1.15,2013-04-10 09:59:00,
2013-04-10 06:04:00,63.8,34.1,30.14,SSW,209,0.0,0.0,33,0.00,,,0.00,Wunderground v.1.15,2013-04-10 10:04:00,
2013-04-10 06:09:00,63.6,33.9,30.14,SSW,213,0.0,1.0,33,0.00,,,0.00,Wunderground v.1.15,2013-04-10 10:09:00,
2013-04-10 06:14:00,63.5,33.9,30.14,SW,215,0.0,0.0,33,0.00,,,0.00,Wunderground v.1.15,2013-04-10 10:14:00,
2013-04-10 06:20:00,63.5,33.9,30.14,SW,219,0.0,0.0,33,0.00,,,0.00,Wunderground v.1.15,2013-04-10 10:20:00,
2013-04-10 06:25:00,63.5,33.9,30.14,SW,221,0.0,0.0,33,0.00,,,0.00,Wunderground v.1.15,2013-04-10 10:25:00,
2013-04-10 06:30:00,63.4,33.8,30.14,SW,226,0.0,0.0,33,0.00,,,0.00,Wunderground v.1.15,2013-04-10 10:30:00,
2013-04-10 06:35:00,63.3,33.7,30.14,SW,228,0.0,2.0,33,0.00,,,0.00,Wunderground v.1.15,2013-04-10 10:35:00,
2013-04-10 06:40:00,63.2,33.6,30.14,SW,227,0.0,0.0,33,0.00,,,0.00,Wunderground v.1.15,2013-04-10 10:40:00,
2013-04-10 06:45:00,63.2,33.6,30.14,SW,222,5.0,5.0,33,0.00,,,0.00,Wunderground v.1.15,2013-04-10 10:45:00,
2013-04-10 06:50:00,63.0,33.4,30.14,SSW,213,0.0,2.0,33,0.00,,,0.00,Wunderground v.1.15,2013-04-10 10:50:00,
2013-04-10 06:55:00,62.9,33.3,30.14,SSW,212,0.0,2.0,33,0.00,,,0.00,Wunderground v.1.15,2013-04-10 10:55:00,
2013-04-10 07:00:00,62.9,34.1,30.15,SSW,213,0.0,0.0,34,0.00,,,0.00,Wunderground v.1.15,2013-04-10 11:00:00,
2013-04-10 07:05:00,62.9,34.1,30.15,SW,216,0.0,0.0,34,0.00,,,0.00,Wunderground v.1.15,2013-04-10 11:05:00,
2013-04-10 07:10:00,62.9,34.1,30.15,SW,215,0.0,0.0,34,0.00,,,0.00,Wunderground v.1.15,2013-04-10 11:10:00,
2013-04-10 07:15:00,62.9,34.1,30.15,SW,214,0.0,0.0,34,0.00,,,0.00,Wunderground v.1.15,2013-04-10 11:15:00,
2013-04-10 07:20:00,63.0,34.2,30.15,SW,214,0.0,1.0,34,0.00,,,0.00,Wunderground v.1.15,2013-04-10 11:20:00,
2013-04-10 07:25:00,63.1,34.3,30.16,SW,214,0.0,1.0,34,0.00,,,0.00,Wunderground v.1.15,2013-04-10 11:25:00,
2013-04-10 07:30:00,63.2,34.3,30.16,SW,214,0.0,0.0,34,0.00,,,0.00,Wunderground v.1.15,2013-04-10 11:30:00,
2013-04-10 07:35:00,63.3,34.4,30.16,SW,214,0.0,0.0,34,0.00,,,0.00,Wunderground v.1.15,2013-04-10 11:35:00,
2013-04-10 07:40:00,63.5,34.6,30.16,SW,214,0.0,0.0,34,0.00,,,0.00,Wunderground v.1.15,2013-04-10 11:40:00,
2013-04-10 07:45:00,63.6,34.7,30.16,SW,215,0.0,0.0,34,0.00,,,0.00,Wunderground v.1.15,2013-04-10 11:45:00,
2013-04-10 07:50:00,63.9,35.0,30.16,SW,217,0.0,0.0,34,0.00,,,0.00,Wunderground v.1.15,2013-04-10 11:50:00,
2013-04-10 07:55:00,64.1,35.1,30.16,SW,218,0.0,0.0,34,0.00,,,0.00,Wunderground v.1.15,2013-04-10 11:55:00,
2013-04-10 08:00:00,64.4,34.6,30.17,SW,222,0.0,0.0,33,0.00,,,0.00,Wunderground v.1.15,2013-04-10 12:00:00,
2013-04-10 08:05:00,64.7,34.9,30.17,SW,222,0.0,0.0,33,0.00,,,0.00,Wunderground v.1.15,2013-04-10 12:05:00,
2013-04-10 08:10:00,65.1,35.3,30.17,SW,223,0.0,0.0,33,0.00,,,0.00,Wunderground v.1.15,2013-04-10 12:10:00,
2013-04-10 08:15:00,65.4,35.5,30.17,SW,222,0.0,4.0,33,0.00,,,0.00,Wunderground v.1.15,2013-04-10 12:15:00,
2013-04-10 08:20:00,65.7,35.8,30.17,SW,220,0.0,3.0,33,0.00,,,0.00,Wunderground v.1.15,2013-04-10 12:20:00,
2013-04-10 08:25:00,65.7,35.8,30.17,SW,228,5.0,5.0,33,0.00,,,0.00,Wunderground v.1.15,2013-04-10 12:25:00,
2013-04-10 08:30:00,65.7,35.8,30.17,SW,225,0.0,2.0,33,0.00,,,0.00,Wunderground v.1.15,2013-04-10 12:30:00,
2013-04-10 08:35:00,65.9,36.0,30.17,SW,225,0.0,6.0,33,0.00,,,0.00,Wunderground v.1.15,2013-04-10 12:35:00,
2013-04-10 08:40:00,66.2,35.4,30.17,SW,222,0.0,1.0,32,0.00,,,0.00,Wunderground v.1.15,2013-04-10 12:40:00,
2013-04-10 08:45:00,66.7,35.9,30.17,WSW,254,6.0,9.0,32,0.00,,,0.00,Wunderground v.1.15,2013-04-10 12:45:00,
2013-04-10 08:50:00,67.4,36.5,30.17,SW,222,0.0,2.0,32,0.00,,,0.00,Wunderground v.1.15,2013-04-10 12:50:00,
2013-04-10 08:55:00,68.0,37.0,30.17,SW,225,0.0,6.0,32,0.00,,,0.00,Wunderground v.1.15,2013-04-10 12:55:00,
2013-04-10 09:00:00,68.4,37.4,30.17,SW,229,1.0,8.0,32,0.00,,,0.00,Wunderground v.1.15,2013-04-10 13:00:00,
2013-04-10 09:05:00,68.8,37.7,30.17,SW,215,5.0,8.0,32,0.00,,,0.00,Wunderground v.1.15,2013-04-10 13:05:00,
2013-04-10 09:10:00,69.3,38.9,30.17,West,265,0.0,2.0,33,0.00,,,0.00,Wunderground v.1.15,2013-04-10 13:10:00,
2013-04-10 09:15:00,69.7,39.3,30.17,SW,219,8.0,9.0,33,0.00,,,0.00,Wunderground v.1.15,2013-04-10 13:15:00,
2013-04-10 09:20:00,69.8,40.2,30.17,WSW,256,1.0,3.0,34,0.00,,,0.00,Wunderground v.1.15,2013-04-10 13:20:00,
2013-04-10 09:25:00,70.4,40.7,30.18,WSW,245,0.0,8.0,34,0.00,,,0.00,Wunderground v.1.15,2013-04-10 13:25:00,
2013-04-10 09:30:00,70.7,42.4,30.17,South,191,1.0,4.0,36,0.00,,,0.00,Wunderground v.1.15,2013-04-10 13:30:00,
2013-04-10 09:35:00,70.9,44.0,30.17,SSW,211,10.0,12.0,38,0.00,,,0.00,Wunderground v.1.15,2013-04-10 13:35:00,
2013-04-10 09:40:00,71.1,46.2,30.17,SE,136,7.0,11.0,41,0.00,,,0.00,Wunderground v.1.15,2013-04-10 13:40:00,
2013-04-10 09:45:00,71.3,47.6,30.18,South,173,4.0,13.0,43,0.00,,,0.00,Wunderground v.1.15,2013-04-10 13:45:00,
2013-04-10 09:50:00,71.6,48.5,30.18,SSW,210,10.0,10.0,44,0.00,,,0.00,Wunderground v.1.15,2013-04-10 13:50:00,
2013-04-10 09:55:00,72.0,48.9,30.18,SSW,207,8.0,11.0,44,0.00,,,0.00,Wunderground v.1.15,2013-04-10 13:55:00,
2013-04-10 10:00:00,72.0,50.1,30.18,SSW,206,1.0,6.0,46,0.00,,,0.00,Wunderground v.1.15,2013-04-10 14:00:00,
2013-04-10 10:05:00,72.4,51.0,30.18,SW,224,14.0,15.0,47,0.00,,,0.00,Wunderground v.1.15,2013-04-10 14:05:00,
2013-04-10 10:10:00,72.5,52.8,30.18,SW,229,15.0,15.0,50,0.00,,,0.00,Wunderground v.1.15,2013-04-10 14:10:00,
2013-04-10 10:15:00,72.5,53.9,30.18,SW,224,12.0,16.0,52,0.00,,,0.00,Wunderground v.1.15,2013-04-10 14:15:00,
2013-04-10 10:20:00,72.3,54.7,30.18,SW,216,9.0,16.0,54,0.00,,,0.00,Wunderground v.1.15,2013-04-10 14:20:00,
2013-04-10 10:25:00,72.5,54.4,30.18,SW,234,7.0,19.0,53,0.00,,,0.00,Wunderground v.1.15,2013-04-10 14:25:00,
2013-04-10 10:30:00,72.3,54.2,30.18,SW,219,7.0,12.0,53,0.00,,,0.00,Wunderground v.1.15,2013-04-10 14:30:00,
2013-04-10 10:35:00,72.5,53.9,30.18,SSW,199,15.0,18.0,52,0.00,,,0.00,Wunderground v.1.15,2013-04-10 14:35:00,
2013-04-10 10:40:00,72.7,54.1,30.19,South,175,10.0,14.0,52,0.00,,,0.00,Wunderground v.1.15,2013-04-10 14:40:00,
2013-04-10 10:45:00,73.0,54.3,30.19,SSW,209,8.0,20.0,52,0.00,,,0.00,Wunderground v.1.15,2013-04-10 14:45:00,
2013-04-10 10:50:00,73.2,55.0,30.19,SSW,204,12.0,13.0,53,0.00,,,0.00,Wunderground v.1.15,2013-04-10 14:50:00,
2013-04-10 10:55:00,73.5,56.3,30.19,South,171,10.0,16.0,55,0.00,,,0.00,Wunderground v.1.15,2013-04-10 14:55:00,
2013-04-10 11:00:00,73.9,56.2,30.19,SW,217,11.0,11.0,54,0.00,,,0.00,Wunderground v.1.15,2013-04-10 15:00:00,
2013-04-10 11:05:00,73.8,57.1,30.19,South,181,8.0,18.0,56,0.00,,,0.00,Wunderground v.1.15,2013-04-10 15:05:00,
2013-04-10 11:10:00,73.7,57.5,30.19,SSW,201,7.0,9.0,57,0.00,,,0.00,Wunderground v.1.15,2013-04-10 15:10:00,
2013-04-10 11:15:00,74.0,57.3,30.19,SSW,213,11.0,16.0,56,0.00,,,0.00,Wunderground v.1.15,2013-04-10 15:15:00,
2013-04-10 11:20:00,73.5,57.3,30.19,SW,233,11.0,15.0,57,0.00,,,0.00,Wunderground v.1.15,2013-04-10 15:20:00,
2013-04-10 11:25:00,73.2,57.1,30.19,SSW,203,7.0,16.0,57,0.00,,,0.00,Wunderground v.1.15,2013-04-10 15:25:00,
2013-04-10 11:30:00,73.6,56.9,30.19,South,169,6.0,10.0,56,0.00,,,0.00,Wunderground v.1.15,2013-04-10 15:30:00,
2013-04-10 11:35:00,73.9,57.7,30.18,SW,218,7.0,19.0,57,0.00,,,0.00,Wunderground v.1.15,2013-04-10 15:35:00,
2013-04-10 11:40:00,74.1,58.4,30.19,South,189,9.0,12.0,58,0.00,,,0.00,Wunderground v.1.15,2013-04-10 15:40:00,
2013-04-10 11:45:00,73.9,58.2,30.18,WSW,248,8.0,18.0,58,0.00,,,0.00,Wunderground v.1.15,2013-04-10 15:45:00,
2013-04-10 11:50:00,74.0,58.3,30.18,SW,215,7.0,12.0,58,0.00,,,0.00,Wunderground v.1.15,2013-04-10 15:50:00,
2013-04-10 11:55:00,74.5,59.2,30.19,SSW,196,13.0,16.0,59,0.00,,,0.00,Wunderground v.1.15,2013-04-10 15:55:00,
2013-04-10 12:01:00,74.9,60.1,30.18,WSW,245,7.0,16.0,60,0.00,,,0.00,Wunderground v.1.15,2013-04-10 16:01:00,
2013-04-10 12:06:00,75.0,60.6,30.18,WSW,252,7.0,16.0,61,0.00,,,0.00,Wunderground v.1.15,2013-04-10 16:06:00,
2013-04-10 12:11:00,75.3,60.9,30.18,SSW,198,6.0,10.0,61,0.00,,,0.00,Wunderground v.1.15,2013-04-10 16:11:00,
2013-04-10 12:17:00,75.7,61.3,30.17,SSE,166,9.0,13.0,61,0.00,,,0.00,Wunderground v.1.15,2013-04-10 16:17:00,
2013-04-10 12:22:00,75.2,60.8,30.17,SE,144,9.0,12.0,61,0.00,,,0.00,Wunderground v.1.15,2013-04-10 16:22:00,
2013-04-10 12:27:00,75.6,61.2,30.18,South,175,7.0,16.0,61,0.00,,,0.00,Wunderground v.1.15,2013-04-10 16:27:00,
2013-04-10 12:32:00,75.9,61.5,30.17,SSE,163,9.0,12.0,61,0.00,,,0.00,Wunderground v.1.15,2013-04-10 16:32:00,
2013-04-10 12:37:00,76.2,61.8,30.17,SW,215,8.0,12.0,61,0.00,,,0.00,Wunderground v.1.15,2013-04-10 16:37:00,
2013-04-10 12:42:00,76.3,61.4,30.17,ESE,122,5.0,12.0,60,0.00,,,0.00,Wunderground v.1.15,2013-04-10 16:42:00,
2013-04-10 12:47:00,76.2,61.3,30.17,South,179,7.0,14.0,60,0.00,,,0.00,Wunderground v.1.15,2013-04-10 16:47:00,
2013-04-10 12:52:00,75.5,60.6,30.17,South,175,12.0,13.0,60,0.00,,,0.00,Wunderground v.1.15,2013-04-10 16:52:00,
2013-04-10 12:57:00,75.4,60.5,30.17,SSW,209,14.0,19.0,60,0.00,,,0.00,Wunderground v.1.15,2013-04-10 16:57:00,
2013-04-10 13:02:00,75.7,60.8,30.17,SSE,157,8.0,13.0,60,0.00,,,0.00,Wunderground v.1.15,2013-04-10 17:02:00,
2013-04-10 13:07:00,75.9,61.0,30.17,SSE,153,11.0,14.0,60,0.00,,,0.00,Wunderground v.1.15,2013-04-10 17:07:00,
2013-04-10 13:12:00,75.8,60.9,30.17,SSE,165,10.0,16.0,60,0.00,,,0.00,Wunderground v.1.15,2013-04-10 17:12:00,
2013-04-10 13:17:00,75.3,60.9,30.17,South,182,10.0,16.0,61,0.00,,,0.00,Wunderground v.1.15,2013-04-10 17:17:00,
2013-04-10 13:22:00,75.6,61.2,30.16,SSE,152,11.0,12.0,61,0.00,,,0.00,Wunderground v.1.15,2013-04-10 17:22:00,
2013-04-10 13:27:00,76.1,61.7,30.16,South,184,14.0,15.0,61,0.00,,,0.00,Wunderground v.1.15,2013-04-10 17:27:00,
2013-04-10 13:32:00,75.7,60.8,30.16,South,178,10.0,12.0,60,0.00,,,0.00,Wunderground v.1.15,2013-04-10 17:32:00,
2013-04-10 13:37:00,75.5,61.1,30.16,SSE,161,10.0,14.0,61,0.00,,,0.00,Wunderground v.1.15,2013-04-10 17:37:00,
2013-04-10 13:42:00,75.7,60.8,30.16,SSE,165,10.0,14.0,60,0.00,,,0.00,Wunderground v.1.15,2013-04-10 17:42:00,
2013-04-10 13:47:00,76.0,61.6,30.15,SSE,164,8.0,14.0,61,0.00,,,0.00,Wunderground v.1.15,2013-04-10 17:47:00,
2013-04-10 13:52:00,75.7,61.3,30.15,SSW,213,3.0,11.0,61,0.00,,,0.00,Wunderground v.1.15,2013-04-10 17:52:00,
2013-04-10 13:57:00,76.2,61.3,30.15,SW,217,10.0,13.0,60,0.00,,,0.00,Wunderground v.1.15,2013-04-10 17:57:00,
2013-04-10 14:02:00,76.1,61.2,30.15,SSW,194,16.0,16.0,60,0.00,,,0.00,Wunderground v.1.15,2013-04-10 18:02:00,
2013-04-10 14:07:00,75.9,60.5,30.15,SSW,206,10.0,16.0,59,0.00,,,0.00,Wunderground v.1.15,2013-04-10 18:07:00,
2013-04-10 14:12:00,75.7,60.8,30.15,SSE,163,15.0,15.0,60,0.00,,,0.00,Wunderground v.1.15,2013-04-10 18:12:00,
2013-04-10 14:17:00,75.8,60.9,30.14,SSE,161,13.0,19.0,60,0.00,,,0.00,Wunderground v.1.15,2013-04-10 18:17:00,
2013-04-10 14:22:00,75.5,60.6,30.14,SE,132,0.0,13.0,60,0.00,,,0.00,Wunderground v.1.15,2013-04-10 18:22:00,
2013-04-10 14:27:00,75.5,61.1,30.14,SE,144,2.0,18.0,61,0.00,,,0.00,Wunderground v.1.15,2013-04-10 18:27:00,
2013-04-10 14:32:00,75.8,60.9,30.13,SSE,148,11.0,16.0,60,0.00,,,0.00,Wunderground v.1.15,2013-04-10 18:32:00,
2013-04-10 14:37:00,76.0,61.1,30.13,East,96,8.0,16.0,60,0.00,,,0.00,Wunderground v.1.15,2013-04-10 18:37:00,
2013-04-10 14:42:00,75.7,61.3,30.13,South,172,9.0,15.0,61,0.00,,,0.00,Wunderground v.1.15,2013-04-10 18:42:00,
2013-04-10 14:48:00,75.6,60.3,30.13,South,170,9.0,16.0,59,0.00,,,0.00,Wunderground v.1.15,2013-04-10 18:48:00,
2013-04-10 14:53:00,75.9,61.0,30.13,SSE,149,6.0,15.0,60,0.00,,,0.00,Wunderground v.1.15,2013-04-10 18:53:00,
2013-04-10 14:58:00,76.5,61.6,30.13,SSE,155,11.0,15.0,60,0.00,,,0.00,Wunderground v.1.15,2013-04-10 18:58:00,
2013-04-10 15:03:00,75.8,61.4,30.13,SE,133,10.0,15.0,61,0.00,,,0.00,Wunderground v.1.15,2013-04-10 19:03:00,
2013-04-10 15:08:00,75.8,61.4,30.12,South,169,12.0,15.0,61,0.00,,,0.00,Wunderground v.1.15,2013-04-10 19:08:00,
2013-04-10 15:13:00,75.2,61.3,30.12,SSW,198,12.0,14.0,62,0.00,,,0.00,Wunderground v.1.15,2013-04-10 19:13:00,
2013-04-10 15:18:00,75.5,61.6,30.12,SE,128,9.0,16.0,62,0.00,,,0.00,Wunderground v.1.15,2013-04-10 19:18:00,
2013-04-10 15:23:00,75.0,61.1,30.11,SSE,159,13.0,19.0,62,0.00,,,0.00,Wunderground v.1.15,2013-04-10 19:23:00,
2013-04-10 15:28:00,74.7,60.8,30.11,SSW,202,8.0,19.0,62,0.00,,,0.00,Wunderground v.1.15,2013-04-10 19:28:00,
2013-04-10 15:33:00,75.5,61.6,30.11,South,181,4.0,12.0,62,0.00,,,0.00,Wunderground v.1.15,2013-04-10 19:33:00,
2013-04-10 15:38:00,75.2,61.3,30.11,SSW,192,3.0,14.0,62,0.00,,,0.00,Wunderground v.1.15,2013-04-10 19:38:00,
2013-04-10 15:43:00,75.5,61.6,30.11,South,186,9.0,15.0,62,0.00,,,0.00,Wunderground v.1.15,2013-04-10 19:43:00,
2013-04-10 15:48:00,75.2,61.3,30.10,South,173,8.0,15.0,62,0.00,,,0.00,Wunderground v.1.15,2013-04-10 19:48:00,
2013-04-10 15:53:00,75.0,61.1,30.11,South,180,9.0,18.0,62,0.00,,,0.00,Wunderground v.1.15,2013-04-10 19:53:00,
2013-04-10 15:58:00,75.2,61.3,30.10,SSW,209,7.0,20.0,62,0.00,,,0.00,Wunderground v.1.15,2013-04-10 19:58:00,
2013-04-10 16:03:00,75.6,61.7,30.10,SE,142,12.0,16.0,62,0.00,,,0.00,Wunderground v.1.15,2013-04-10 20:03:00,
2013-04-10 16:09:00,75.6,61.7,30.10,South,172,9.0,16.0,62,0.00,,,0.00,Wunderground v.1.15,2013-04-10 20:09:00,
2013-04-10 16:14:00,75.8,61.8,30.10,SSE,157,7.0,18.0,62,0.00,,,0.00,Wunderground v.1.15,2013-04-10 20:14:00,
2013-04-10 16:19:00,75.4,61.5,30.10,SSE,159,11.0,18.0,62,0.00,,,0.00,Wunderground v.1.15,2013-04-10 20:19:00,
2013-04-10 16:24:00,75.5,61.6,30.09,South,173,15.0,15.0,62,0.00,,,0.00,Wunderground v.1.15,2013-04-10 20:24:00,
2013-04-10 16:29:00,75.3,61.4,30.09,SSE,163,3.0,21.0,62,0.00,,,0.00,Wunderground v.1.15,2013-04-10 20:29:00,
2013-04-10 16:34:00,75.2,61.7,30.09,South,180,8.0,18.0,63,0.00,,,0.00,Wunderground v.1.15,2013-04-10 20:34:00,
2013-04-10 16:39:00,74.8,60.9,30.09,SSE,150,3.0,18.0,62,0.00,,,0.00,Wunderground v.1.15,2013-04-10 20:39:00,
2013-04-10 16:44:00,74.8,60.9,30.08,SSE,168,18.0,22.0,62,0.00,,,0.00,Wunderground v.1.15,2013-04-10 20:44:00,
2013-04-10 16:49:00,74.1,60.2,30.08,SE,146,15.0,22.0,62,0.00,,,0.00,Wunderground v.1.15,2013-04-10 20:49:00,
2013-04-10 16:54:00,74.3,60.4,30.08,South,173,12.0,22.0,62,0.00,,,0.00,Wunderground v.1.15,2013-04-10 20:54:00,
2013-04-10 16:59:00,74.2,60.3,30.08,SSW,200,7.0,22.0,62,0.00,,,0.00,Wunderground v.1.15,2013-04-10 20:59:00,
2013-04-10 17:04:00,74.6,60.7,30.08,SE,145,5.0,19.0,62,0.00,,,0.00,Wunderground v.1.15,2013-04-10 21:04:00,
2013-04-10 17:09:00,74.7,60.8,30.08,SE,142,16.0,20.0,62,0.00,,,0.00,Wunderground v.1.15,2013-04-10 21:09:00,
2013-04-10 17:14:00,74.2,60.3,30.08,South,182,16.0,18.0,62,0.00,,,0.00,Wunderground v.1.15,2013-04-10 21:14:00,
2013-04-10 17:19:00,74.2,60.3,30.08,SSE,165,13.0,23.0,62,0.00,,,0.00,Wunderground v.1.15,2013-04-10 21:19:00,
2013-04-10 17:24:00,73.7,59.4,30.08,SSW,213,9.0,21.0,61,0.00,,,0.00,Wunderground v.1.15,2013-04-10 21:24:00,
2013-04-10 17:29:00,73.8,59.5,30.08,SSE,159,10.0,21.0,61,0.00,,,0.00,Wunderground v.1.15,2013-04-10 21:29:00,
2013-04-10 17:34:00,74.1,59.8,30.08,SSE,159,10.0,18.0,61,0.00,,,0.00,Wunderground v.1.15,2013-04-10 21:34:00,
2013-04-10 17:39:00,73.6,59.3,30.08,South,187,12.0,18.0,61,0.00,,,0.00,Wunderground v.1.15,2013-04-10 21:39:00,
2013-04-10 17:44:00,73.6,58.9,30.08,South,184,6.0,18.0,60,0.00,,,0.00,Wunderground v.1.15,2013-04-10 21:44:00,
2013-04-10 17:49:00,73.6,58.9,30.08,SSE,163,15.0,18.0,60,0.00,,,0.00,Wunderground v.1.15,2013-04-10 21:49:00,
2013-04-10 17:54:00,73.6,58.9,30.08,SSW,198,11.0,14.0,60,0.00,,,0.00,Wunderground v.1.15,2013-04-10 21:54:00,
2013-04-10 17:59:00,73.6,58.9,30.08,SW,225,6.0,18.0,60,0.00,,,0.00,Wunderground v.1.15,2013-04-10 21:59:00,
2013-04-10 18:04:00,73.4,58.7,30.08,South,186,5.0,15.0,60,0.00,,,0.00,Wunderground v.1.15,2013-04-10 22:04:00,
2013-04-10 18:10:00,73.1,58.4,30.08,South,186,6.0,10.0,60,0.00,,,0.00,Wunderground v.1.15,2013-04-10 22:10:00,
2013-04-10 18:15:00,73.0,58.3,30.08,SSW,192,8.0,14.0,60,0.00,,,0.00,Wunderground v.1.15,2013-04-10 22:15:00,
2013-04-10 18:19:00,73.2,58.0,30.08,SE,130,9.0,9.0,59,0.00,,,0.00,Wunderground v.1.15,2013-04-10 22:19:00,
2013-04-10 18:25:00,73.3,58.1,30.08,SSW,197,8.0,13.0,59,0.00,,,0.00,Wunderground v.1.15,2013-04-10 22:25:00,
2013-04-10 18:29:00,73.1,57.9,30.08,South,190,6.0,8.0,59,0.00,,,0.00,Wunderground v.1.15,2013-04-10 22:29:00,
2013-04-10 18:35:00,73.1,57.9,30.08,South,169,10.0,12.0,59,0.00,,,0.00,Wunderground v.1.15,2013-04-10 22:35:00,
2013-04-10 18:40:00,73.1,57.9,30.08,SSW,195,5.0,7.0,59,0.00,,,0.00,Wunderground v.1.15,2013-04-10 22:40:00,
2013-04-10 18:45:00,72.7,57.5,30.07,SSE,165,6.0,14.0,59,0.00,,,0.00,Wunderground v.1.15,2013-04-10 22:45:00,
2013-04-10 18:50:00,72.4,56.8,30.07,South,179,8.0,8.0,58,0.00,,,0.00,Wunderground v.1.15,2013-04-10 22:50:00,
2013-04-10 18:55:00,72.2,56.1,30.07,South,171,6.0,13.0,57,0.00,,,0.00,Wunderground v.1.15,2013-04-10 22:55:00,
2013-04-10 19:00:00,72.2,55.6,30.07,SSW,194,6.0,8.0,56,0.00,,,0.00,Wunderground v.1.15,2013-04-10 23:00:00,
2013-04-10 19:05:00,72.0,55.4,30.07,South,186,6.0,12.0,56,0.00,,,0.00,Wunderground v.1.15,2013-04-10 23:05:00,
2013-04-10 19:10:00,72.0,54.4,30.07,South,173,8.0,10.0,54,0.00,,,0.00,Wunderground v.1.15,2013-04-10 23:10:00,
2013-04-10 19:15:00,71.6,53.6,30.07,South,176,10.0,12.0,53,0.00,,,0.00,Wunderground v.1.15,2013-04-10 23:15:00,
2013-04-10 19:20:00,71.5,52.4,30.07,SSE,159,11.0,13.0,51,0.00,,,0.00,Wunderground v.1.15,2013-04-10 23:20:00,
2013-04-10 19:25:00,71.3,51.7,30.06,South,170,5.0,13.0,50,0.00,,,0.00,Wunderground v.1.15,2013-04-10 23:25:00,
2013-04-10 19:30:00,71.0,50.9,30.07,SSE,159,9.0,9.0,49,0.00,,,0.00,Wunderground v.1.15,2013-04-10 23:30:00,
2013-04-10 19:35:00,70.9,49.7,30.06,SSW,211,1.0,10.0,47,0.00,,,0.00,Wunderground v.1.15,2013-04-10 23:35:00,
2013-04-10 19:40:00,70.8,48.4,30.06,South,175,6.0,7.0,45,0.00,,,0.00,Wunderground v.1.15,2013-04-10 23:40:00,
2013-04-10 19:45:00,70.8,47.2,30.06,SSE,157,0.0,7.0,43,0.00,,,0.00,Wunderground v.1.15,2013-04-10 23:45:00,
2013-04-10 19:50:00,70.7,45.2,30.06,South,178,5.0,5.0,40,0.00,,,0.00,Wunderground v.1.15,2013-04-10 23:50:00,
2013-04-10 19:55:00,70.5,44.3,30.06,SSE,160,8.0,8.0,39,0.00,,,0.00,Wunderground v.1.15,2013-04-10 23:55:00,
2013-04-10 20:00:00,70.5,43.7,30.06,South,178,2.0,5.0,38,0.00,,,0.00,Wunderground v.1.15,2013-04-11 00:00:00,
2013-04-10 20:05:00,70.4,42.9,30.06,South,182,0.0,7.0,37,0.00,,,0.00,Wunderground v.1.15,2013-04-11 00:05:00,
2013-04-10 20:10:00,70.4,42.2,30.06,South,179,0.0,1.0,36,0.00,,,0.00,Wunderground v.1.15,2013-04-11 00:10:00,
2013-04-10 20:15:00,70.4,41.4,30.06,South,180,0.0,5.0,35,0.00,,,0.00,Wunderground v.1.15,2013-04-11 00:15:00,
2013-04-10 20:20:00,70.3,40.6,30.07,South,177,0.0,1.0,34,0.00,,,0.00,Wunderground v.1.15,2013-04-11 00:20:00,
2013-04-10 20:25:00,70.2,40.5,30.07,South,180,0.0,5.0,34,0.00,,,0.00,Wunderground v.1.15,2013-04-11 00:25:00,
2013-04-10 20:30:00,70.1,40.4,30.07,South,188,0.0,1.0,34,0.00,,,0.00,Wunderground v.1.15,2013-04-11 00:30:00,
2013-04-10 20:35:00,70.0,39.6,30.07,SSE,165,5.0,7.0,33,0.00,,,0.00,Wunderground v.1.15,2013-04-11 00:35:00,
2013-04-10 20:40:00,69.9,39.5,30.07,South,171,6.0,6.0,33,0.00,,,0.00,Wunderground v.1.15,2013-04-11 00:40:00,
2013-04-10 20:45:00,69.8,39.4,30.07,SSW,198,0.0,7.0,33,0.00,,,0.00,Wunderground v.1.15,2013-04-11 00:45:00,
2013-04-10 20:50:00,69.7,38.5,30.07,South,190,1.0,3.0,32,0.00,,,0.00,Wunderground v.1.15,2013-04-11 00:50:00,
2013-04-10 20:55:00,69.6,38.4,30.07,SSW,196,5.0,7.0,32,0.00,,,0.00,Wunderground v.1.15,2013-04-11 00:55:00,
2013-04-10 21:00:00,69.6,38.4,30.07,SSW,198,0.0,1.0,32,0.00,,,0.00,Wunderground v.1.15,2013-04-11 01:00:00,
2013-04-10 21:05:00,69.5,38.3,30.07,South,184,0.0,7.0,32,0.00,,,0.00,Wunderground v.1.15,2013-04-11 01:05:00,
2013-04-10 21:10:00,69.4,37.4,30.07,SSW,194,0.0,6.0,31,0.00,,,0.00,Wunderground v.1.15,2013-04-11 01:10:00,
2013-04-10 21:15:00,69.3,37.3,30.07,South,191,0.0,6.0,31,0.00,,,0.00,Wunderground v.1.15,2013-04-11 01:15:00,
2013-04-10 21:20:00,69.2,37.3,30.07,SSW,192,0.0,1.0,31,0.00,,,0.00,Wunderground v.1.15,2013-04-11 01:20:00,
2013-04-10 21:25:00,69.1,37.2,30.07,South,176,0.0,5.0,31,0.00,,,0.00,Wunderground v.1.15,2013-04-11 01:25:00,
2013-04-10 21:30:00,69.0,37.1,30.06,South,171,0.0,4.0,31,0.00,,,0.00,Wunderground v.1.15,2013-04-11 01:30:00,
2013-04-10 21:35:00,68.9,37.0,30.06,South,188,0.0,5.0,31,0.00,,,0.00,Wunderground v.1.15,2013-04-11 01:35:00,
2013-04-10 21:40:00,68.9,37.0,30.07,SSW,195,0.0,5.0,31,0.00,,,0.00,Wunderground v.1.15,2013-04-11 01:40:00,
2013-04-10 21:45:00,68.8,36.9,30.07,SSW,202,0.0,6.0,31,0.00,,,0.00,Wunderground v.1.15,2013-04-11 01:45:00,
2013-04-10 21:50:00,68.8,36.9,30.07,South,182,0.0,1.0,31,0.00,,,0.00,Wunderground v.1.15,2013-04-11 01:50:00,
2013-04-10 21:55:00,68.8,36.9,30.07,South,184,0.0,4.0,31,0.00,,,0.00,Wunderground v.1.15,2013-04-11 01:55:00,
2013-04-10 22:00:00,68.7,36.8,30.07,South,184,1.0,1.0,31,0.00,,,0.00,Wunderground v.1.15,2013-04-11 02:00:00,
2013-04-10 22:05:00,68.6,36.7,30.07,SSW,192,0.0,4.0,31,0.00,,,0.00,Wunderground v.1.15,2013-04-11 02:05:00,
2013-04-10 22:10:00,68.6,36.7,30.07,SSW,192,0.0,4.0,31,0.00,,,0.00,Wunderground v.1.15,2013-04-11 02:10:00,
2013-04-10 22:15:00,68.5,36.7,30.07,SSW,192,0.0,4.0,31,0.00,,,0.00,Wunderground v.1.15,2013-04-11 02:15:00,
2013-04-10 22:20:00,68.5,36.7,30.07,SSW,192,0.0,0.0,31,0.00,,,0.00,Wunderground v.1.15,2013-04-11 02:20:00,
2013-04-10 22:25:00,68.5,35.8,30.07,South,191,0.0,5.0,30,0.00,,,0.00,Wunderground v.1.15,2013-04-11 02:25:00,
2013-04-10 22:30:00,68.5,35.8,30.06,South,190,0.0,0.0,30,0.00,,,0.00,Wunderground v.1.15,2013-04-11 02:30:00,
2013-04-10 22:35:00,68.5,35.8,30.06,South,182,0.0,3.0,30,0.00,,,0.00,Wunderground v.1.15,2013-04-11 02:35:00,
2013-04-10 22:40:00,68.4,35.7,30.06,South,180,0.0,0.0,30,0.00,,,0.00,Wunderground v.1.15,2013-04-11 02:40:00,
2013-04-10 22:45:00,68.4,35.7,30.06,South,184,0.0,5.0,30,0.00,,,0.00,Wunderground v.1.15,2013-04-11 02:45:00,
2013-04-10 22:50:00,68.3,35.6,30.06,South,184,0.0,2.0,30,0.00,,,0.00,Wunderground v.1.15,2013-04-11 02:50:00,
2013-04-10 22:55:00,68.3,36.5,30.06,SSW,198,0.0,5.0,31,0.00,,,0.00,Wunderground v.1.15,2013-04-11 02:55:00,
2013-04-10 23:01:00,68.2,36.4,30.06,SSW,198,1.0,6.0,31,0.00,,,0.00,Wunderground v.1.15,2013-04-11 03:01:00,
2013-04-10 23:06:00,68.2,36.4,30.05,SSW,196,0.0,6.0,31,0.00,,,0.00,Wunderground v.1.15,2013-04-11 03:06:00,
2013-04-10 23:12:00,68.1,36.3,30.05,SSW,195,0.0,3.0,31,0.00,,,0.00,Wunderground v.1.15,2013-04-11 03:12:00,
2013-04-10 23:17:00,68.0,36.2,30.05,SSW,195,0.0,5.0,31,0.00,,,0.00,Wunderground v.1.15,2013-04-11 03:17:00,
2013-04-10 23:22:00,67.9,36.1,30.05,SSW,192,0.0,2.0,31,0.00,,,0.00,Wunderground v.1.15,2013-04-11 03:22:00,
2013-04-10 23:27:00,67.9,36.1,30.05,South,188,0.0,2.0,31,0.00,,,0.00,Wunderground v.1.15,2013-04-11 03:27:00,
2013-04-10 23:32:00,67.8,36.0,30.05,South,190,0.0,0.0,31,0.00,,,0.00,Wunderground v.1.15,2013-04-11 03:32:00,
2013-04-10 23:37:00,67.8,36.0,30.05,South,190,0.0,1.0,31,0.00,,,0.00,Wunderground v.1.15,2013-04-11 03:37:00,
2013-04-10 23:42:00,67.8,36.0,30.04,South,188,0.0,0.0,31,0.00,,,0.00,Wunderground v.1.15,2013-04-11 03:42:00,
2013-04-10 23:47:00,67.8,36.0,30.04,South,187,0.0,2.0,31,0.00,,,0.00,Wunderground v.1.15,2013-04-11 03:47:00,
2013-04-10 23:52:00,67.7,36.0,30.04,South,186,0.0,0.0,31,0.00,,,0.00,Wunderground v.1.15,2013-04-11 03:52:00,
2013-04-10 23:57:00,67.7,36.0,30.05,SSE,163,0.0,4.0,31,0.00,,,0.00,Wunderground v.1.15,2013-04-11 03:57:00,